Regional Weather Roundup
Issued by NWS Nashville, TN

Home | Current Version | Previous Version | Text Only | Print | Product List | Glossary On
Versions: 1 2 3 4 5 6 7 8 9 10 11 12 13 14 15 16 17 18 19 20 21 22 23 24 25 26 27
000
ASUS44 KOHX 201010
RWROHX
MIDDLE TENNESSEE HOURLY WEATHER ROUNDUP
NATIONAL WEATHER SERVICE NASHVILLE TN
500 AM CDT SUN AUG 20 2017

NOTE: "FAIR" INDICATES FEW OR NO CLOUDS BELOW 12,000 FEET WITH
NO SIGNIFICANT WEATHER AND/OR OBSTRUCTIONS TO VISIBILITY.

* THESE REPORTS ARE NOT UNDER NWS QUALITY CONTROL AND MAY NOT
  REPORT WEATHER SUCH AS PRECIPITATION AND FOG.


TNZ005>011-023>034-057-059-062>066-078-080-201100
...NORTHERN MIDDLE TENNESSEE...

CITY           SKY/WX    TMP DP  RH WIND       PRES   REMARKS
CLARKSVILLE    CLOUDY    67  66  97 CALM      30.02R
CROSSVILLE     CLEAR     63  62  97 CALM      30.12R
GALLATIN       PTCLDY    70  68  94 CALM      30.06R
DICKSON        CLEAR     69  68  97 CALM      30.03S
LEBANON        PTCLDY    69  68  97 CALM      30.03R
NASHVILLE      CLEAR     73  70  90 CALM      30.03S
PORTLAND       CLEAR     68  68 100 CALM      30.03R
SMYRNA         PTCLDY    70  69  97 CALM      30.05R
SPARTA           N/A     66  64  94 CALM      30.06S
SPRINGFIELD    CLEAR     68  68 100 SE3       30.01R FOG
WEST NASHVILLE CLEAR     72  70  94 CALM      30.01R
$$
TNZ056-058-060-061-075>077-079-093>097-201100
...SOUTHERN MIDDLE TENNESSEE...

CITY           SKY/WX    TMP DP  RH WIND       PRES   REMARKS
COLUMBIA       CLEAR     70  70 100 CALM      30.01R
FAYETTEVILLE   CLOUDY    72  70  94 N3        30.05R
MCMINNVILLE    CLEAR     66  66 100 CALM      30.07R
MURFREESBORO   PTCLDY    71  68  90 CALM      30.03S
PULASKI        CLOUDY    70  70 100 CALM      30.03R FOG
SHELBYVILLE    PTCLDY    70  68  94 CALM      30.04S
TULLAHOMA      CLEAR     68  64  88 CALM      30.07R
WINCHESTER     CLEAR     68  66  94 CALM      30.06R
$$


...KEY TO REMARKS...
VSB - VISIBILITY IN MILES
WCI - WIND CHILL INDEX
HX  - HEAT INDEX





USA.gov is the U.S. government's official web portal to all federal, state and local government web resources and services.